�������l�o���
Date,Time,MP-1(��Sv/h),MP-2(��Sv/h),MP-3(��Sv/h),MP-4(��Sv/h),MP-5(��Sv/h),MP-6(��Sv/h),MP-7(��Sv/h),MP-8(��Sv/h),����,����(m/s),���J
2018/01/28,00:00,0.759,1.283,0.835,1.507,1.035,0.448,0.820,0.809,�k,1.7,��
2018/01/28,00:10,0.757,1.284,0.837,1.505,1.034,0.450,0.820,0.808,�k�k��,2.2,��
2018/01/28,00:20,0.759,1.283,0.838,1.505,1.035,0.450,0.818,0.808,�k,3.2,��
2018/01/28,00:30,0.758,1.285,0.833,1.507,1.035,0.451,0.819,0.808,�k,2.3,��
2018/01/28,00:40,0.759,1.282,0.838,1.506,1.036,0.449,0.820,0.809,�k��,1.5,��
2018/01/28,00:50,0.758,1.283,0.835,1.507,1.034,0.451,0.820,0.807,��쓌,1.5,��
2018/01/28,01:00,0.758,1.286,0.836,1.506,1.034,0.448,0.820,0.806,�쓌,2.0,��
2018/01/28,01:10,0.759,1.284,0.835,1.507,1.035,0.452,0.819,0.809,�쓌,1.5,��
2018/01/28,01:20,0.758,1.284,0.837,1.506,1.035,0.450,0.821,0.809,���쓌,0.8,��
2018/01/28,01:30,0.760,1.283,0.837,1.504,1.036,0.450,0.819,0.809,�쓌,2.0,��
2018/01/28,01:40,0.758,1.283,0.836,1.503,1.033,0.450,0.820,0.809,��쓌,2.3,��
2018/01/28,01:50,0.756,1.280,0.836,1.507,1.032,0.450,0.819,0.807,��,1.7,��
2018/01/28,02:00,0.758,1.282,0.837,1.504,1.035,0.450,0.820,0.808,�k�k��,1.1,��
2018/01/28,02:10,0.757,1.284,0.835,1.503,1.033,0.450,0.817,0.808,�k�k��,2.0,��
2018/01/28,02:20,0.758,1.280,0.836,1.505,1.035,0.449,0.820,0.808,���쐼,0.6,��
2018/01/28,02:30,0.759,1.282,0.836,1.505,1.034,0.448,0.819,0.809,��쐼,2.3,��
2018/01/28,02:40,0.757,1.284,0.834,1.506,1.032,0.449,0.819,0.810,�쓌,2.3,��
2018/01/28,02:50,0.759,1.281,0.833,1.506,1.031,0.449,0.817,0.809,���쐼,0.9,��
2018/01/28,03:00,0.758,1.284,0.834,1.505,1.032,0.449,0.820,0.809,�쐼,2.3,��
2018/01/28,03:10,0.758,1.283,0.834,1.506,1.033,0.450,0.820,0.807,��쐼,3.5,��
2018/01/28,03:20,0.758,1.283,0.834,1.505,1.031,0.449,0.821,0.808,��쐼,4.1,��
2018/01/28,03:30,0.757,1.282,0.835,1.505,1.030,0.448,0.820,0.807,���쐼,2.9,��
2018/01/28,03:40,0.757,1.281,0.834,1.505,1.031,0.449,0.820,0.808,��,2.6,��
2018/01/28,03:50,0.757,1.282,0.835,1.503,1.032,0.448,0.819,0.808,��,3.9,��
2018/01/28,04:00,0.756,1.282,0.834,1.505,1.030,0.449,0.816,0.807,��,5.1,��
2018/01/28,04:10,0.757,1.282,0.833,1.503,1.031,0.449,0.822,0.808,���k��,8.6,��
2018/01/28,04:20,0.755,1.281,0.834,1.503,1.032,0.449,0.821,0.807,�k��,9.4,��
2018/01/28,04:30,0.757,1.284,0.834,1.507,1.032,0.449,0.819,0.807,�k��,9.5,��
2018/01/28,04:40,0.757,1.281,0.834,1.506,1.033,0.448,0.819,0.811,�k��,11.0,��
2018/01/28,04:50,0.757,1.282,0.834,1.510,1.033,0.448,0.819,0.807,�k��,10.2,��
2018/01/28,05:00,0.757,1.280,0.835,1.507,1.032,0.445,0.817,0.808,�k��,8.2,��
2018/01/28,05:10,0.757,1.281,0.835,1.506,1.030,0.446,0.819,0.808,�k��,7.5,��
2018/01/28,05:20,0.758,1.283,0.835,1.507,1.033,0.447,0.817,0.807,�k�k��,5.6,��
2018/01/28,05:30,0.754,1.284,0.834,1.509,1.031,0.447,0.820,0.808,�k��,5.9,��
2018/01/28,05:40,0.757,1.282,0.837,1.509,1.031,0.446,0.820,0.808,�k��,5.1,��
2018/01/28,05:50,0.757,1.281,0.836,1.508,1.031,0.447,0.820,0.808,�k��,4.4,��
2018/01/28,06:00,0.755,1.282,0.835,1.507,1.030,0.449,0.820,0.807,�k�k��,3.0,��
2018/01/28,06:10,0.757,1.278,0.833,1.506,1.032,0.448,0.819,0.809,�k�k��,2.5,��
2018/01/28,06:20,0.755,1.279,0.835,1.506,1.033,0.449,0.819,0.810,�k�k��,2.6,��
2018/01/28,06:30,0.758,1.283,0.834,1.506,1.032,0.448,0.820,0.808,�k�k��,2.0,��
2018/01/28,06:40,0.757,1.283,0.836,1.505,1.032,0.448,0.821,0.809,�k��,1.7,��
2018/01/28,06:50,0.756,1.281,0.835,1.506,1.032,0.449,0.820,0.806,���k��,2.8,��
2018/01/28,07:00,0.756,1.282,0.833,1.508,1.031,0.449,0.819,0.808,�k��,3.0,��
2018/01/28,07:10,0.756,1.282,0.835,1.505,1.034,0.449,0.820,0.809,�k��,4.1,��
2018/01/28,07:20,0.757,1.281,0.836,1.506,1.033,0.448,0.822,0.809,�k��,3.4,��
2018/01/28,07:30,0.756,1.283,0.833,1.507,1.034,0.449,0.821,0.809,�k�k��,2.3,��
2018/01/28,07:40,0.755,1.283,0.834,1.504,1.030,0.450,0.821,0.808,�k��,2.5,��
2018/01/28,07:50,0.757,1.281,0.833,1.507,1.032,0.449,0.820,0.808,�k�k��,3.0,��
2018/01/28,08:00,0.758,1.282,0.836,1.505,1.032,0.449,0.820,0.809,�k�k��,3.1,��
2018/01/28,08:10,0.758,1.285,0.835,1.509,1.036,0.449,0.820,0.807,�k��,2.5,��
2018/01/28,08:20,0.757,1.283,0.837,1.508,1.032,0.450,0.820,0.807,�k�k��,3.4,��
2018/01/28,08:30,0.758,1.283,0.836,1.509,1.033,0.450,0.820,0.807,�k��,4.6,��
2018/01/28,08:40,0.757,1.283,0.835,1.508,1.032,0.448,0.821,0.810,�k��,4.1,��
2018/01/28,08:50,0.758,1.283,0.835,1.507,1.031,0.449,0.821,0.809,���k��,2.6,��
2018/01/28,09:00,0.757,1.284,0.837,1.508,1.032,0.448,0.821,0.809,���k��,2.2,��
2018/01/28,09:10,0.759,1.284,0.837,1.507,1.034,0.449,0.821,0.807,�k�k��,1.7,��
2018/01/28,09:20,0.757,1.286,0.834,1.507,1.034,0.449,0.822,0.810,�k�k��,1.7,��
2018/01/28,09:30,0.759,1.282,0.837,1.511,1.032,0.451,0.822,0.808,�k,2.3,��
2018/01/28,09:40,0.760,1.281,0.837,1.510,1.031,0.451,0.823,0.809,�k�k��,1.9,��
2018/01/28,09:50,0.757,1.286,0.836,1.508,1.033,0.450,0.823,0.810,�k�k��,0.9,��
2018/01/28,10:00,0.761,1.280,0.836,1.511,1.034,0.451,0.821,0.810,�k�k��,1.7,��
2018/01/28,10:10,0.758,1.284,0.838,1.508,1.034,0.449,0.823,0.807,���k��,1.2,��
2018/01/28,10:20,0.759,1.284,0.837,1.509,1.035,0.451,0.821,0.808,�k��,2.0,��
2018/01/28,10:30,0.759,1.286,0.837,1.511,1.036,0.449,0.823,0.808,�k�k��,1.9,��
2018/01/28,10:40,0.759,1.284,0.838,1.511,1.033,0.450,0.823,0.810,�k�k��,1.5,��
2018/01/28,10:50,0.761,1.285,0.837,1.509,1.035,0.453,0.822,0.809,�k��,2.0,��
2018/01/28,11:00,0.761,1.286,0.838,1.511,1.036,0.450,0.822,0.810,�k��,2.2,��
2018/01/28,11:10,0.760,1.288,0.838,1.511,1.034,0.451,0.822,0.808,���쓌,2.9,��
2018/01/28,11:20,0.761,1.288,0.838,1.509,1.036,0.450,0.820,0.809,�쓌,2.0,��
2018/01/28,11:30,0.763,1.289,0.839,1.510,1.035,0.450,0.820,0.809,�쓌,2.6,��
2018/01/28,11:40,0.763,1.286,0.839,1.511,1.038,0.452,0.820,0.810,���쓌,3.1,��
2018/01/28,11:50,0.762,1.288,0.840,1.513,1.034,0.452,0.821,0.808,�쓌,3.3,��
2018/01/28,12:00,0.763,1.285,0.838,1.512,1.038,0.452,0.822,0.811,���쓌,3.8,��
2018/01/28,12:10,0.763,1.284,0.841,1.511,1.038,0.451,0.823,0.809,�쓌,3.3,��
2018/01/28,12:20,0.764,1.288,0.840,1.514,1.038,0.451,0.822,0.810,���쓌,3.5,��
2018/01/28,12:30,0.764,1.287,0.839,1.514,1.038,0.451,0.822,0.809,��쓌,4.2,��
2018/01/28,12:40,0.764,1.286,0.841,1.513,1.039,0.451,0.822,0.811,��쓌,4.4,��
2018/01/28,12:50,0.765,1.288,0.840,1.514,1.039,0.452,0.823,0.809,�쓌,4.0,��
2018/01/28,13:00,0.764,1.288,0.843,1.512,1.040,0.452,0.822,0.809,�쓌,3.8,��
2018/01/28,13:10,0.768,1.290,0.841,1.513,1.036,0.453,0.823,0.809,��쓌,4.2,��
2018/01/28,13:20,0.766,1.290,0.842,1.513,1.041,0.454,0.822,0.810,��쓌,4.9,��
2018/01/28,13:30,0.768,1.288,0.843,1.514,1.040,0.453,0.822,0.810,��쓌,4.1,��
2018/01/28,13:40,0.766,1.290,0.842,1.513,1.042,0.452,0.824,0.810,��,3.7,��
2018/01/28,13:50,0.766,1.292,0.845,1.513,1.041,0.454,0.825,0.810,��쓌,3.6,��
2018/01/28,14:00,0.768,1.289,0.844,1.515,1.042,0.452,0.823,0.811,��쓌,5.3,��
2018/01/28,14:10,0.768,1.292,0.844,1.513,1.041,0.452,0.823,0.811,��쓌,6.8,��
2018/01/28,14:20,0.767,1.292,0.843,1.514,1.043,0.454,0.826,0.812,��쓌,8.2,��
2018/01/28,14:30,0.769,1.293,0.845,1.515,1.045,0.455,0.824,0.809,��쓌,8.7,��
2018/01/28,14:40,0.768,1.293,0.845,1.514,1.044,0.455,0.825,0.810,��쓌,7.5,��
2018/01/28,14:50,0.766,1.295,0.846,1.515,1.043,0.453,0.824,0.811,��쓌,7.4,��
2018/01/28,15:00,0.769,1.291,0.844,1.513,1.043,0.454,0.824,0.810,��,8.3,��
2018/01/28,15:10,0.768,1.293,0.844,1.516,1.044,0.453,0.824,0.812,��,6.2,��
2018/01/28,15:20,0.770,1.295,0.846,1.515,1.047,0.455,0.826,0.809,��,8.3,��
2018/01/28,15:30,0.770,1.295,0.847,1.516,1.046,0.454,0.823,0.811,��,9.0,��
2018/01/28,15:40,0.769,1.296,0.845,1.515,1.044,0.454,0.825,0.812,��,8.8,��
2018/01/28,15:50,0.769,1.296,0.845,1.514,1.046,0.455,0.826,0.809,��,7.3,��
2018/01/28,16:00,0.769,1.295,0.845,1.520,1.047,0.455,0.826,0.811,��,5.1,��
2018/01/28,16:10,0.769,1.295,0.845,1.516,1.048,0.455,0.826,0.810,��,4.6,��
2018/01/28,16:20,0.771,1.296,0.846,1.516,1.047,0.455,0.825,0.810,��,6.5,��
2018/01/28,16:30,0.769,1.296,0.845,1.516,1.048,0.455,0.825,0.811,��,7.0,��
2018/01/28,16:40,0.769,1.298,0.846,1.518,1.048,0.455,0.825,0.810,��,6.4,��
2018/01/28,16:50,0.771,1.298,0.846,1.518,1.046,0.455,0.827,0.811,��,6.0,��
2018/01/28,17:00,0.771,1.298,0.849,1.519,1.048,0.455,0.824,0.810,��,6.1,��
2018/01/28,17:10,0.772,1.298,0.849,1.514,1.047,0.455,0.825,0.811,��,5.5,��
2018/01/28,17:20,0.771,1.298,0.847,1.517,1.048,0.455,0.824,0.812,��,5.9,��
2018/01/28,17:30,0.774,1.298,0.846,1.517,1.048,0.455,0.827,0.812,��,6.1,��
2018/01/28,17:40,0.771,1.300,0.846,1.518,1.048,0.454,0.825,0.810,��,5.5,�L
2018/01/28,17:50,0.771,1.299,0.846,1.518,1.049,0.455,0.828,0.810,��쐼,5.0,��
2018/01/28,18:00,0.772,1.299,0.848,1.519,1.050,0.457,0.825,0.812,��쐼,4.7,��
2018/01/28,18:10,0.772,1.301,0.848,1.519,1.048,0.454,0.825,0.813,��쐼,5.1,��
2018/01/28,18:20,0.771,1.298,0.847,1.517,1.047,0.456,0.824,0.811,��쐼,5.1,��
2018/01/28,18:30,0.773,1.301,0.846,1.518,1.048,0.454,0.827,0.811,��쐼,4.9,��
2018/01/28,18:40,0.773,1.299,0.848,1.518,1.052,0.455,0.826,0.810,��,4.8,��
2018/01/28,18:50,0.772,1.299,0.850,1.517,1.050,0.455,0.827,0.811,��,4.9,��
2018/01/28,19:00,0.773,1.301,0.846,1.518,1.049,0.455,0.825,0.812,��,5.0,��
2018/01/28,19:10,0.771,1.299,0.847,1.520,1.047,0.455,0.826,0.811,��쐼,4.0,��
2018/01/28,19:20,0.772,1.300,0.847,1.518,1.049,0.454,0.825,0.811,��쐼,2.6,��
2018/01/28,19:30,0.773,1.300,0.848,1.517,1.050,0.456,0.826,0.811,�쐼,2.0,��
2018/01/28,19:40,0.773,1.299,0.847,1.520,1.048,0.456,0.828,0.812,��쐼,2.9,��
2018/01/28,19:50,0.772,1.301,0.850,1.519,1.052,0.456,0.825,0.810,��쐼,3.8,��
2018/01/28,20:00,0.774,1.299,0.847,1.519,1.051,0.455,0.825,0.811,��쐼,4.3,��
2018/01/28,20:10,0.773,1.297,0.850,1.519,1.048,0.455,0.824,0.813,��쐼,3.1,��
2018/01/28,20:20,0.773,1.299,0.850,1.520,1.050,0.457,0.826,0.813,��,3.2,��
2018/01/28,20:30,0.773,1.298,0.849,1.521,1.051,0.456,0.826,0.813,��쓌,3.1,��
2018/01/28,20:40,0.774,1.299,0.849,1.521,1.049,0.456,0.826,0.811,��,2.2,��
2018/01/28,20:50,0.776,1.299,0.849,1.520,1.052,0.455,0.826,0.812,-,CALM,�L
2018/01/28,21:00,0.777,1.300,0.848,1.521,1.053,0.455,0.825,0.813,���k��,1.7,��
2018/01/28,21:10,0.775,1.299,0.848,1.519,1.052,0.455,0.826,0.813,���쓌,2.0,��
2018/01/28,21:20,0.775,1.301,0.849,1.522,1.052,0.456,0.827,0.812,�쓌,3.1,��
2018/01/28,21:30,0.773,1.298,0.849,1.523,1.050,0.456,0.826,0.813,��쓌,2.6,��
2018/01/28,21:40,0.775,1.299,0.847,1.520,1.051,0.456,0.827,0.813,��쓌,2.3,��
2018/01/28,21:50,0.773,1.299,0.848,1.521,1.051,0.456,0.825,0.810,��쓌,3.4,��
2018/01/28,22:00,0.775,1.302,0.849,1.520,1.050,0.455,0.825,0.810,��쓌,3.7,��
2018/01/28,22:10,0.775,1.300,0.847,1.518,1.050,0.456,0.828,0.810,��,3.3,��
2018/01/28,22:20,0.774,1.300,0.850,1.519,1.054,0.455,0.824,0.811,��,2.3,��
2018/01/28,22:30,0.775,1.300,0.848,1.517,1.050,0.456,0.826,0.811,��쐼,2.5,��
2018/01/28,22:40,0.777,1.300,0.850,1.518,1.053,0.454,0.826,0.812,��쐼,4.2,��
2018/01/28,22:50,0.775,1.299,0.848,1.519,1.050,0.456,0.826,0.812,��쐼,4.3,��
2018/01/28,23:00,0.777,1.300,0.849,1.521,1.050,0.456,0.826,0.814,��쐼,5.4,��
2018/01/28,23:10,0.774,1.301,0.849,1.523,1.048,0.457,0.827,0.811,��,4.8,��
2018/01/28,23:20,0.775,1.298,0.848,1.520,1.054,0.455,0.827,0.812,��쐼,4.2,��
2018/01/28,23:30,0.774,1.300,0.847,1.522,1.051,0.455,0.828,0.812,�쐼,5.5,��
2018/01/28,23:40,0.776,1.303,0.849,1.520,1.051,0.456,0.827,0.812,�쐼,7.4,��
2018/01/28,23:50,0.775,1.301,0.850,1.521,1.051,0.457,0.828,0.812,�쐼,10.5,��
